Vorticity
nan nan nan nan nan nan nan nan nan nan nan nan nan nan nan nan nan nan nan nan nan nan nan nan nan nan nan nan nan nan nan nan nan nan nan nan nan nan nan nan nan nan nan nan
nan 8 16 9 8 12 3 11 14 8 7 -1 8 21 11 6 9 7 7 8 9 11 8 9 11 10 20 12 4 13 7 8 16 16 8 7 9 10 10 10 8 7 8 nan
nan 11 14 16 16 5 15 25 7 17 11 -1 1 17 17 9 8 7 8 9 10 11 8 11 6 10 11 13 13 8 8 7 5 10 12 9 8 8 7 6 8 11 11 nan
nan 9 9 10 16 10 13 8 20 20 16 11 7 9 7 15 11 7 6 7 9 9 10 10 10 6 10 11 12 14 9 7 10 10 10 10 9 8 9 10 9 9 9 nan
nan 10 8 8 12 15 10 8 12 25 29 10 11 6 5 9 10 11 10 8 9 11 10 8 8 10 9 10 14 14 13 13 12 11 12 12 12 11 12 13 15 16 16 nan
nan 10 8 20 10 7 8 5 8 19 18 12 8 10 20 15 10 8 9 9 10 11 9 9 12 16 12 15 11 10 11 12 15 15 15 16 16 12 10 12 14 16 15 nan
nan 8 5 7 6 8 12 9 6 10 4 15 25 19 14 10 9 11 9 9 9 9 10 9 13 18 16 9 8 13 17 11 11 10 10 11 11 13 14 13 12 10 8 nan
nan 13 5 2 11 9 11 6 8 11 11 6 3 18 12 11 11 10 9 8 7 8 11 11 12 11 12 7 10 15 12 11 10 10 11 11 11 10 11 10 9 9 8 nan
nan 18 15 1 7 9 5 7 9 14 16 8 8 9 7 6 10 8 7 9 10 9 8 11 12 11 9 8 12 13 11 11 9 10 11 13 12 9 10 9 7 8 9 nan
nan 6 6 12 11 5 3 9 9 11 21 22 8 5 12 11 10 8 7 9 9 9 9 10 11 12 11 11 12 11 10 9 9 10 9 10 11 10 11 11 13 11 10 nan
nan 15 11 10 20 17 16 9 8 14 17 10 15 17 7 8 9 10 9 10 10 9 8 9 11 9 12 13 11 9 9 9 9 9 8 8 9 13 14 12 13 13 11 nan
nan 8 10 8 16 15 26 13 14 16 11 12 12 12 11 10 8 11 10 10 9 10 10 9 9 10 13 11 9 8 10 11 10 10 11 9 7 5 8 12 12 13 16 nan
nan 9 8 14 8 2 6 10 16 16 9 10 12 12 11 9 9 10 11 11 10 9 9 8 10 12 9 7 8 12 13 9 8 10 12 12 11 9 5 5 7 6 8 nan
nan 9 13 26 20 17 5 11 9 10 9 10 11 10 10 11 10 10 10 9 11 10 7 9 10 9 9 11 9 8 6 12 13 10 10 10 8 8 9 10 9 8 8 nan
nan 13 10 12 6 6 21 21 9 12 9 12 11 12 12 10 9 10 10 9 9 8 9 11 10 9 10 11 10 9 8 9 6 8 11 12 13 12 10 8 10 10 10 nan
nan 15 14 2 4 3 10 23 13 12 10 10 10 10 12 12 11 10 9 9 9 11 9 8 8 10 10 9 7 9 9 8 14 13 11 11 10 10 10 13 14 12 12 nan
nan 13 21 11 7 17 15 19 12 12 11 11 12 12 9 10 9 9 10 10 10 10 10 11 10 9 10 8 9 10 9 8 8 11 13 12 10 9 10 11 13 11 11 nan
nan 11 14 11 15 29 17 7 12 12 12 11 12 11 11 9 9 10 9 9 12 10 9 10 12 9 8 7 9 11 11 9 10 12 12 9 11 11 8 10 11 11 8 nan
nan 11 11 11 13 9 17 18 11 10 12 11 10 9 11 11 10 10 9 9 7 9 12 10 9 9 9 9 11 10 10 10 10 9 8 10 8 8 14 14 9 10 12 nan
nan 10 12 15 13 8 10 8 13 11 11 11 10 10 10 10 10 11 10 9 7 10 16 16 7 5 9 14 10 5 8 13 16 14 12 10 10 10 9 9 11 10 10 nan
nan 12 11 12 9 12 13 10 11 11 10 10 11 10 10 10 11 10 8 9 11 9 16 16 7 10 14 14 8 7 9 9 11 16 14 11 12 13 10 12 16 14 9 nan
nan 12 13 11 13 10 11 10 10 11 10 10 10 8 9 10 12 10 9 8 16 16 5 4 14 14 14 16 11 11 12 11 9 10 10 10 11 12 12 9 11 15 13 nan
nan 12 13 11 12 11 11 9 10 11 9 9 9 10 9 9 10 10 12 10 11 15 6 17 20 14 8 6 10 11 11 17 18 11 10 12 10 9 10 12 9 8 10 nan
nan 12 12 13 12 11 10 12 12 10 11 10 10 8 6 9 11 13 14 17 18 9 8 16 13 8 3 8 10 10 11 10 10 12 15 17 13 12 12 12 15 13 9 nan
nan 11 12 13 10 10 10 10 10 14 14 12 10 10 8 5 10 14 14 20 20 6 11 14 9 2 5 9 11 10 10 10 10 13 12 9 13 13 16 14 11 15 10 nan
nan 11 12 13 10 11 11 11 11 9 11 12 11 12 10 11 11 9 12 20 15 9 8 10 8 8 10 12 12 11 12 13 12 10 12 16 15 12 13 13 13 11 9 nan
nan nan nan nan nan nan nan nan nan nan nan nan nan nan nan nan nan nan nan nan nan nan nan nan nan nan nan nan nan nan nan nan nan nan nan nan nan nan nan nan nan nan nan nan
CAPE
0 46 48 16 8 93 42 62 10 41 37 355 1 268 650 773 468 588 241 397 552 239 30 870 1353 2068 2652 2202 527 2756 2372 2175 2465 2273 2486 2604 2704 2547 2532 2856 2619 2614 2736 2833
0 1 8 36 11 25 45 0 1 67 189 0 0 636 478 271 400 210 61 91 58 662 66 403 571 864 2245 2808 3043 3371 3053 2793 2758 2754 3083 3363 3256 2611 2860 2775 2946 2768 2446 2198
26 46 17 29 44 25 47 43 63 260 431 0 0 0 398 142 93 18 8 27 13 46 232 460 574 545 411 1125 1785 1941 2619 2126 1580 2045 2768 2873 2374 3065 2671 2550 2541 2661 2378 2258
2 0 9 46 48 30 29 53 81 407 354 0 0 301 335 210 138 31 2 6 15 33 134 258 373 218 295 220 454 1476 1555 1773 1346 1905 2013 2554 2270 1870 1858 1988 2393 1874 2145 1951
0 3 4 14 117 86 97 53 4 30 393 98 262 412 188 177 153 70 33 15 39 71 83 45 52 137 269 303 554 762 985 1278 1558 1491 801 1155 1163 1588 1638 1638 1694 1681 1545 1322
0 1 5 126 119 60 27 11 385 219 311 403 51 360 505 217 172 117 63 74 81 53 42 2 5 24 455 647 521 1016 1030 846 521 956 757 353 366 542 861 760 194 13 2 1
10 5 2 214 113 44 27 229 479 326 0 143 461 399 509 350 188 184 79 123 128 65 4 1 1 173 418 400 409 641 1103 996 781 813 301 199 132 74 46 3 3 2 1 1
43 59 49 146 71 57 374 191 242 460 142 543 287 315 607 583 348 210 169 166 44 56 34 3 0 0 2 4 9 93 194 108 117 113 95 73 49 4 5 3 2 2 2 3
34 25 454 194 129 41 37 75 46 225 262 465 1 57 656 687 485 325 178 106 83 55 57 24 8 0 2 3 4 7 5 5 3 6 1 10 31 9 6 4 2 2 1 2
43 57 10 11 63 57 87 98 123 159 473 866 701 559 567 577 512 335 220 122 77 64 54 64 36 6 3 3 2 4 4 3 1 1 1 0 0 0 3 0 10 2 0 0
111 79 109 44 101 221 136 184 292 386 749 816 619 661 574 540 581 302 218 192 106 56 37 30 66 7 5 6 4 3 3 3 2 1 0 0 0 0 0 1 0 0 0 0
19 450 313 314 159 187 185 359 578 707 1101 973 872 768 565 520 392 275 268 172 231 69 41 9 3 4 10 5 0 2 2 2 0 0 0 0 0 0 0 0 0 0 0 0
172 13 69 185 304 4 0 78 606 1203 1344 983 819 749 590 527 437 241 125 133 14 79 3 7 0 12 0 0 0 0 0 0 0 0 0 0 0 0 0 0 0 0 0 0
47 131 29 237 371 11 36 272 897 1020 1015 946 847 718 620 471 316 329 196 275 20 1 5 0 0 0 6 4 6 0 0 0 0 0 0 0 0 0 0 0 0 0 0 0
87 55 62 26 103 55 4 863 1006 942 919 946 910 763 560 478 450 271 27 19 4 2 2 0 0 0 1 0 4 4 8 0 0 0 0 0 0 0 0 0 0 0 0 0
142 25 230 14 15 11 2 228 912 796 796 805 741 705 571 330 106 4 0 8 21 4 45 42 8 0 0 0 0 0 0 0 0 0 0 0 0 0 0 1 0 0 0 0
205 65 180 166 14 1 6 820 952 715 854 722 384 322 225 181 38 301 490 160 420 445 194 75 4 0 0 0 5 0 0 0 0 0 0 0 0 0 0 0 0 0 0 0
234 248 153 97 83 386 533 683 837 761 600 263 246 357 394 481 571 762 597 431 201 165 128 186 48 2 0 0 0 11 0 0 0 1 0 0 0 0 0 0 1 3 0 0
171 116 106 155 352 168 525 615 706 690 705 466 472 523 453 534 742 635 494 359 407 439 256 274 31 0 36 11 0 0 14 14 6 4 3 0 0 0 11 16 16 16 13 0
245 117 92 126 596 137 510 952 487 600 685 681 641 555 444 560 786 665 594 546 296 118 311 164 134 29 47 107 17 0 3 16 50 38 51 21 11 18 25 0 2 11 49 21
166 133 24 167 350 1432 1162 1027 723 700 679 616 711 843 715 690 608 891 854 328 650 761 331 140 361 146 45 41 29 33 1 3 49 21 40 50 56 10 30 41 2 31 64 45
98 13 94 193 541 1208 1142 588 735 972 954 1048 869 949 1082 994 926 844 851 646 357 66 218 211 173 46 2 28 47 47 37 34 33 46 38 34 64 40 35 32 47 69 34 28
82 38 355 756 682 864 838 694 635 939 965 1084 1075 1277 1276 845 682 536 503 964 357 26 156 282 8 0 0 0 0 0 0 8 19 15 43 47 30 34 36 24 45 36 29 9
805 738 660 701 700 882 1136 1152 587 810 1202 1424 1372 1441 1298 819 765 651 707 319 78 89 350 0 0 0 0 0 0 0 0 0 0 0 0 0 41 18 43 50 71 72 27 0
1007 790 661 748 926 405 1359 1379 1014 1325 1237 1473 1482 1583 1359 1131 1019 367 285 291 37 93 392 0 0 0 0 0 0 0 0 0 0 0 0 0 0 4 12 56 44 9 0 0
1088 184 139 647 376 237 359 449 200 209 245 770 852 881 1100 927 596 218 239 467 292 230 254 0 0 0 0 0 0 0 0 0 0 0 0 0 3 10 6 0 0 0 0 1
737 209 157 408 153 192 120 197 389 286 238 409 585 626 427 344 393 161 2 121 301 124 64 0 0 0 0 0 0 0 0 0 0 0 0 25 21 4 0 0 0 21 57 1